timestamp,surface_pressure_avg,surface_temp_avg,battery_voltage,lat,long
2018-04-03 00:00:00+00:00,340.8329,1.9,12.57,47.84626,-54.09684
2018-04-03 00:10:00+00:00,346.2179,1.9,12.49,47.84626,-54.09684
2018-04-03 00:20:00+00:00,349.7164,1.9,12.57,47.84626,-54.09684
2018-04-03 00:30:00+00:00,356.2596,1.9,12.57,47.84626,-54.09684
2018-04-03 00:40:00+00:00,360.8996,1.9,12.57,47.84626,-54.09684
2018-04-03 00:50:00+00:00,363.6346,1.93,12.57,47.84626,-54.09684
2018-04-03 01:00:00+00:00,366.5646,1.97,12.49,47.84626,-54.09684
2018-04-03 01:10:00+00:00,371.0197,2.0,12.49,47.84626,-54.09684
2018-04-03 01:20:00+00:00,371.6663,2.0,12.57,47.84626,-54.09684
2018-04-03 01:30:00+00:00,368.853,2.0,12.57,47.84626,-54.09684
2018-04-03 01:40:00+00:00,371.733,2.0,12.57,47.84626,-54.09684
2018-04-03 01:50:00+00:00,369.923,2.0,12.57,47.84626,-54.09684
2018-04-03 02:00:00+00:00,368.9096,2.0,12.49,47.84626,-54.09684
2018-04-03 02:10:00+00:00,369.903,2.02,12.49,47.84626,-54.09684
2018-04-03 02:20:00+00:00,367.6713,2.05,12.57,47.84626,-54.09684
2018-04-03 02:30:00+00:00,361.0046,2.08,12.57,47.84626,-54.09684
2018-04-03 02:40:00+00:00,355.6964,2.1,12.57,47.84626,-54.09684
2018-04-03 02:50:00+00:00,354.1797,2.1,12.57,47.84626,-54.09684
2018-04-03 03:00:00+00:00,347.3113,2.1,12.49,47.84626,-54.09684
2018-04-03 03:10:00+00:00,341.533,2.1,12.49,47.84626,-54.09684
2018-04-03 03:20:00+00:00,332.6113,2.1,12.57,47.84626,-54.09684
2018-04-03 03:30:00+00:00,324.3613,2.12,12.57,47.84626,-54.09684
2018-04-03 03:40:00+00:00,317.098,2.2,12.57,47.84626,-54.09684
2018-04-03 03:50:00+00:00,311.8981,2.25,12.57,47.84626,-54.09684
2018-04-03 04:00:00+00:00,304.6346,2.3,12.49,47.84626,-54.09684
2018-04-03 04:10:00+00:00,294.5031,2.3,12.49,47.84626,-54.09684
2018-04-03 04:20:00+00:00,284.3848,2.3,12.57,47.84626,-54.09684
2018-04-03 04:30:00+00:00,270.2064,2.3,12.57,47.84626,-54.09684
2018-04-03 04:40:00+00:00,255.6514,2.3,12.57,47.84626,-54.09684
2018-04-03 04:50:00+00:00,247.6198,2.3,12.57,47.84626,-54.09684
2018-04-03 05:00:00+00:00,239.958,2.3,12.49,47.84626,-54.09684
2018-04-03 05:10:00+00:00,228.2348,2.3,12.49,47.84626,-54.09684
2018-04-03 05:20:00+00:00,223.3264,2.2,12.57,47.84626,-54.09684
2018-04-03 05:30:00+00:00,226.6381,2.2,12.57,47.84626,-54.09684
2018-04-03 05:40:00+00:00,221.5114,2.2,12.57,47.84626,-54.09684
2018-04-03 05:50:00+00:00,207.2598,2.2,12.57,47.84626,-54.09684
2018-04-03 06:00:00+00:00,199.2531,2.2,12.49,47.84626,-54.09684
2018-04-03 06:10:00+00:00,194.9281,2.22,12.49,47.84626,-54.09684
2018-04-03 06:20:00+00:00,184.6148,2.29,12.57,47.84626,-54.09684
2018-04-03 06:30:00+00:00,180.9831,2.3,12.57,47.84626,-54.09684
2018-04-03 06:40:00+00:00,187.1665,2.3,12.57,47.84626,-54.09684
2018-04-03 06:50:00+00:00,184.8265,2.3,12.57,47.84626,-54.09684
2018-04-03 07:00:00+00:00,178.6031,2.3,12.49,47.84626,-54.09684
2018-04-03 07:10:00+00:00,183.7248,2.3,12.49,47.84626,-54.09684
2018-04-03 07:20:00+00:00,191.6931,2.3,12.57,47.84626,-54.09684
2018-04-03 07:30:00+00:00,191.4264,2.3,12.57,47.84626,-54.09684
2018-04-03 07:40:00+00:00,192.8215,2.3,12.57,47.84626,-54.09684
2018-04-03 07:50:00+00:00,195.7481,2.29,12.57,47.84626,-54.09684
2018-04-03 08:00:00+00:00,195.7131,2.29,12.49,47.84626,-54.09684
2018-04-03 08:10:00+00:00,193.0964,2.29,12.49,47.84626,-54.09684
2018-04-03 08:20:00+00:00,199.6382,2.27,12.57,47.84626,-54.09684
2018-04-03 08:30:00+00:00,207.2965,2.2,12.57,47.84626,-54.09684
2018-04-03 08:40:00+00:00,206.9148,2.2,12.57,47.84626,-54.09684
2018-04-03 08:50:00+00:00,213.3864,2.1,12.57,47.84626,-54.09684
2018-04-03 09:00:00+00:00,225.1998,2.09,12.49,47.84626,-54.09684
2018-04-03 09:10:00+00:00,226.0948,2.08,12.49,47.84626,-54.09684
2018-04-03 09:20:00+00:00,223.6481,2.1,12.57,47.84626,-54.09684
2018-04-03 09:30:00+00:00,227.7381,2.05,12.57,47.84626,-54.09684
2018-04-03 09:40:00+00:00,233.3848,2.02,12.57,47.84626,-54.09684
2018-04-03 09:50:00+00:00,240.5097,2.07,12.57,47.84626,-54.09684
2018-04-03 10:00:00+00:00,244.5047,2.07,12.49,47.84626,-54.09684
2018-04-03 10:10:00+00:00,248.6564,2.0,12.57,47.84626,-54.09684
2018-04-03 10:20:00+00:00,255.5031,2.0,12.57,47.84626,-54.09684
2018-04-03 10:30:00+00:00,265.4931,1.97,12.57,47.84626,-54.09684
2018-04-03 10:40:00+00:00,268.0647,1.86,12.57,47.84626,-54.09684
2018-04-03 10:50:00+00:00,272.2164,1.85,12.57,47.84626,-54.09684
2018-04-03 11:00:00+00:00,281.4598,1.82,12.49,47.84626,-54.09684
2018-04-03 11:10:00+00:00,289.7497,1.8,12.65,47.84626,-54.09684
2018-04-03 11:20:00+00:00,292.7947,1.8,12.65,47.84626,-54.09684
2018-04-03 11:30:00+00:00,301.3831,1.8,12.57,47.84626,-54.09684
2018-04-03 11:40:00+00:00,312.633,1.8,12.57,47.84626,-54.09684
2018-04-03 11:50:00+00:00,315.4613,1.8,12.57,47.84626,-54.09684
2018-04-03 12:00:00+00:00,313.0829,1.8,12.49,47.84626,-54.09684
2018-04-03 12:10:00+00:00,316.7697,1.78,12.49,47.84626,-54.09684
2018-04-03 12:20:00+00:00,326.1463,1.7,12.57,47.84626,-54.09684
2018-04-03 12:30:00+00:00,332.838,1.8,12.57,47.84626,-54.09684
2018-04-03 12:40:00+00:00,335.7063,1.8,12.57,47.84626,-54.09684
2018-04-03 12:50:00+00:00,345.283,1.7,12.57,47.84626,-54.09684
2018-04-03 13:00:00+00:00,354.9695,1.69,12.49,47.84626,-54.09684
2018-04-03 13:10:00+00:00,357.278,1.7,12.73,47.84626,-54.09684
2018-04-03 13:20:00+00:00,361.0196,1.7,12.65,47.84626,-54.09684
2018-04-03 13:30:00+00:00,365.0096,1.7,12.65,47.84626,-54.09684
2018-04-03 13:40:00+00:00,364.6745,1.7,12.65,47.84626,-54.09684
2018-04-03 13:50:00+00:00,364.1812,1.78,12.57,47.84626,-54.09684
2018-04-03 14:00:00+00:00,363.8879,1.9,12.57,47.84626,-54.09684
2018-04-03 14:10:00+00:00,356.588,2.0,12.81,47.84626,-54.09684
2018-04-03 14:20:00+00:00,351.3412,2.0,12.73,47.84626,-54.09684
2018-04-03 14:30:00+00:00,357.6247,2.0,12.65,47.84626,-54.09684
2018-04-03 14:40:00+00:00,357.7213,2.0,12.65,47.84626,-54.09684
2018-04-03 14:50:00+00:00,355.028,2.0,12.65,47.84626,-54.09684
2018-04-03 15:00:00+00:00,357.1146,2.0,12.57,47.84626,-54.09684
2018-04-03 15:10:00+00:00,354.2663,2.0,12.57,47.84626,-54.09684
2018-04-03 15:20:00+00:00,347.1863,2.0,12.57,47.84626,-54.09684
2018-04-03 15:30:00+00:00,340.8146,2.07,12.57,47.84626,-54.09684
2018-04-03 15:40:00+00:00,336.2013,2.08,12.57,47.84626,-54.09684
2018-04-03 15:50:00+00:00,320.6896,2.09,12.57,47.84626,-54.09684
2018-04-03 16:00:00+00:00,306.0413,2.1,12.57,47.84626,-54.09684
2018-04-03 16:10:00+00:00,303.298,2.1,12.73,47.84626,-54.09684
2018-04-03 16:20:00+00:00,296.8881,2.1,12.65,47.84626,-54.09684
2018-04-03 16:30:00+00:00,284.8747,2.1,12.65,47.84626,-54.09684
2018-04-03 16:40:00+00:00,280.7681,2.1,12.65,47.84626,-54.09684
2018-04-03 16:50:00+00:00,284.4963,2.1,12.65,47.84626,-54.09684
2018-04-03 17:00:00+00:00,272.7247,2.1,12.57,47.84626,-54.09684
2018-04-03 17:10:00+00:00,253.7948,2.13,12.57,47.84626,-54.09684
2018-04-03 17:20:00+00:00,245.5664,2.16,12.57,47.84626,-54.09684
2018-04-03 17:30:00+00:00,234.7864,2.17,12.57,47.84626,-54.09684
2018-04-03 17:40:00+00:00,217.5198,2.19,12.57,47.84626,-54.09684
2018-04-03 17:50:00+00:00,203.6465,2.2,12.57,47.84626,-54.09684
2018-04-03 18:00:00+00:00,199.6864,1.9,12.57,47.84626,-54.09684
2018-04-03 18:10:00+00:00,193.0398,2.1,12.57,47.84626,-54.09684
2018-04-03 18:20:00+00:00,186.3548,2.1,12.65,47.84626,-54.09684
2018-04-03 18:30:00+00:00,185.2864,2.0,12.57,47.84626,-54.09684
2018-04-03 18:40:00+00:00,182.2865,2.0,12.57,47.84626,-54.09684
2018-04-03 18:50:00+00:00,177.9031,2.0,12.57,47.84626,-54.09684
2018-04-03 19:00:00+00:00,179.6231,1.8,12.57,47.84626,-54.09684
2018-04-03 19:10:00+00:00,184.0064,1.8,12.57,47.84626,-54.09684
2018-04-03 19:20:00+00:00,186.8681,1.83,12.65,47.84626,-54.09684
2018-04-03 19:30:00+00:00,192.3564,1.9,12.65,47.84626,-54.09684
2018-04-03 19:40:00+00:00,195.2531,1.94,12.73,47.84626,-54.09684
2018-04-03 19:50:00+00:00,191.9448,1.99,12.65,47.84626,-54.09684
2018-04-03 20:00:00+00:00,195.5582,2.0,12.57,47.84626,-54.09684
2018-04-03 20:10:00+00:00,204.5114,2.09,12.57,47.84626,-54.09684
2018-04-03 20:20:00+00:00,210.1981,2.1,12.65,47.84626,-54.09684
2018-04-03 20:30:00+00:00,210.2115,2.1,12.65,47.84626,-54.09684
2018-04-03 20:40:00+00:00,207.7681,2.1,12.65,47.84626,-54.09684
2018-04-03 20:50:00+00:00,211.2364,2.0,12.57,47.84626,-54.09684
2018-04-03 21:00:00+00:00,220.6864,1.98,12.57,47.84626,-54.09684
2018-04-03 21:10:00+00:00,230.8031,1.9,12.57,47.84626,-54.09684
2018-04-03 21:20:00+00:00,235.0147,1.9,12.57,47.84626,-54.09684
2018-04-03 21:30:00+00:00,237.0798,1.9,12.57,47.84626,-54.09684
2018-04-03 21:40:00+00:00,243.7264,1.92,12.57,47.84626,-54.09684
2018-04-03 21:50:00+00:00,247.6414,2.0,12.57,47.84626,-54.09684
2018-04-03 22:00:00+00:00,244.4331,2.1,12.57,47.84626,-54.09684
2018-04-03 22:10:00+00:00,243.563,2.1,12.49,47.84626,-54.09684
2018-04-03 22:20:00+00:00,252.1431,2.0,12.57,47.84626,-54.09684
2018-04-03 22:30:00+00:00,263.9398,1.9,12.57,47.84626,-54.09684
2018-04-03 22:40:00+00:00,270.2247,1.8,12.57,47.84626,-54.09684
2018-04-03 22:50:00+00:00,271.1197,1.89,12.57,47.84626,-54.09684
2018-04-03 23:00:00+00:00,276.1331,1.93,12.49,47.84626,-54.09684
2018-04-03 23:10:00+00:00,288.768,1.9,12.49,47.84626,-54.09684
2018-04-03 23:20:00+00:00,300.0431,1.9,12.57,47.84626,-54.09684
2018-04-03 23:30:00+00:00,304.7264,1.86,12.57,47.84626,-54.09684
2018-04-03 23:40:00+00:00,312.0363,1.8,12.57,47.84626,-54.09684
2018-04-03 23:50:00+00:00,322.5129,1.8,12.57,47.84626,-54.09684
